www.pogodaiklimat.ru

Погода и климат >> Архив погоды >> Россия >> Красноярский край >> Бахта


ПОГОДА в Бахте

  • Прогноз погоды в Бахте
  • Монитор погоды в Бахте

АРХИВ ПОГОДЫ в Бахте

Время (UTC), дата Ветер
(напр.,м/с)
 
Видим.   Явления Облачность Т
(С)
Тd
(С)
f
(%)
Тe
(С)
Тes
(С)
Комфортность P
(гПа)
Po
(гПа)
Тmin
(С)
Tmax
(С)
R
(мм)
R24
(мм)
S
(см)
21 16.07 штиль 0 50 км 3/0
[Ci sp]
+20.2 +15.7 75 +23 +23 комфорт 1009.9 1004.2
00 17.07 штиль 0 20 км дым 8/0 2000 м
[Ac trans]
+19.9 +14.8 72 +22 +23 комфорт 1009.7 1004.0 +19.9
03 17.07 штиль 0 20 км дым 10/0
[Cs]
+22.4 +16.9 71 +27 +36 душно 1009.0 1003.4
06 17.07 штиль 0 20 км дым 10/0
[Cs]
+26.0 +14.7 50 +29 +42 душно 1007.9 1002.3
09 17.07 штиль 0 20 км дым 8/3 600 м
[Cu hum Ci sp]
+30.0 +16.7 45 +34 +41 очень
душно
1007.0 1001.4
12 17.07 штиль 0 20 км дым 8/4 600 м
[Sc Ci sp]
+29.6 +19.9 56 +36 +37 очень
душно
1006.7 1001.1 +30.0
15 17.07 штиль 0 20 км дым 8/8 600 м
[Sc]
+26.4 +21.3 74 +34 +34 очень
душно
1006.8 1001.2
18 17.07 В 2 н/о дым 4/0
[Ci sp]
+24.0 +17.4 67 +28 +28 душно 1006.8 1001.1
21 17.07 В 2 20 км дым 4/0
[Ci sp]
+20.9 +16.8 77 +25 +25 комфорт 1006.8 1001.3
00 18.07 штиль 0 20 км дым 6/3 600 м
[Sc Ci sp]
+20.6 +16.1 75 +23 +25 комфорт 1007.0 1001.4 +20.6
03 18.07 штиль 0 20 км дым 6/0
[Ci sp]
+24.5 +19.4 73 +30 +40 очень
душно
1007.5 1001.9
06 18.07 В 2 20 км дым 3/0
[Ci sp]
+30.0 +17.4 47 +34 +46 очень
душно
1007.2 1001.6
09 18.07 В 2 20 км дым 6/3 600 м
[Sc Ci sp]
+31.7 +15.3 37 +34 +40 душно 1006.4 1000.9
12 18.07 В 2 20 км дым 8/3 600 м
[Cu hum Ci sp]
+31.4 +16.9 42 +35 +36 очень
душно
1006.4 1000.9 +31.7
15 18.07 штиль 0 20 км дым 3/3 600 м
[Cu med, cong]
+27.2 +17.7 56 +31 +31 душно 1007.7 1002.1
18 18.07 штиль 0 н/о дым ясно +23.3 +17.0 68 +28 +28 душно 1008.8 1003.2
21 18.07 штиль 0 50 км 1/0
[Ci sp]
+20.2 +14.8 71 +22 +22 комфорт 1009.3 1003.6
00 19.07 штиль 0 50 км 4/4 600 м
[Sc]
+19.0 +13.8 72 +20 +22 1010.5 1004.8 +19.0
03 19.07 В 2 20 км дым 4/0 2000 м
[Ac trans]
+22.2 +12.4 54 +25 +31 комфорт 1011.1 1005.4
06 19.07 В 4 10 км дым 6/0
[Ci sp]
+25.5 +14.1 49 +28 +35 жарко 1011.9 1006.2
09 19.07 В 4 10 км дым 6/0
[Ci sp]
+27.0 +13.9 45 +29 +34 жарко 1012.3 1006.7
12 19.07 В 4 20 км дым 3/0
[Ci sp]
+26.1 +12.7 43 +28 +29 жарко 1012.9 1007.3 +27.0
15 19.07 штиль 0 20 км дым 3/0
[Ci sp]
+21.9 +9.5 45 +23 +23 комфорт 1014.2 1008.5
18 19.07 СВ 2 н/о дым ясно +18.2 +6.6 47 +19 +19 1015.5 1009.7
21 19.07 штиль 0 20 км дым 3/0
[Ci sp]
+15.2 +5.6 53 +15 +15 1016.8 1010.9
00 20.07 штиль 0 50 км 3/0
[Ci sp]
+14.2 +5.8 57 +14 +17 1018.0 1012.1 +14.2
03 20.07 штиль 0 20 км дым 1/0
[Ci fib]
+20.0 +6.5 41 +21 +31 комфорт 1018.4 1012.6
06 20.07 С 2 50 км 1/0
[Ci sp]
+22.6 +3.7 29 +23 +35 комфорт 1017.4 1011.7
09 20.07 СВ 2 20 км дым ясно +24.2 +4.0 27 +24 +32 комфорт 1016.0 1010.3
12 20.07 СВ 2 10 км дым 4/0
[Ci fib]
+23.4 +7.9 37 +24 +26 комфорт 1015.9 1010.2 +24.2
15 20.07 СВ 2 10 км дым 3/3 600 м
[Sc]
+18.4 +8.8 54 +19 +19 1016.1 1010.3
18 20.07 СВ 2 н/о дым 3/0
[Ci sp]
+15.8 +6.9 55 +16 +16 1015.7 1009.8
21 20.07 СВ 2 20 км дым 4/0
[Ci sp]
+14.0 +6.6 61 +14 +14 1015.0 1009.1
00 21.07 СВ 4 20 км дым 4/0
[Ci sp]
+13.7 +6.2 60 +12 +14 1014.6 1008.7 +13.7
03 21.07 С 2 20 км дым 3/0
[Ci sp]
+16.8 +7.9 56 +17 +25 1013.9 1008.1
06 21.07 СВ 4 10 км дым 1/0
[Ci sp]
+22.8 +5.3 32 +23 +31 комфорт 1012.6 1006.9
09 21.07 СВ 4 10 км дым 8/0
[Ci sp]
+24.2 +8.6 37 +25 +30 комфорт 1012.1 1006.4
12 21.07 штиль 0 10 км дым 6/0
[Ci sp]
+23.5 +8.8 39 +24 +27 комфорт 1011.9 1006.2 +24.2
15 21.07 штиль 0 10 км дым 8/0
[Ci sp]
+19.2 +11.2 60 +20 +20 1011.4 1005.6
18 21.07 СВ 2 н/о дым 3/0
[Ci sp]
+16.7 +7.8 56 +17 +17 1010.3 1004.6
21 21.07 С 2 10 км дым ясно +14.0 +6.8 62 +14 +14 1008.9 1003.1
00 22.07 штиль 0 10 км дым ясно +12.4 +9.2 81 +12 +15 1008.8 1003.0 +12.4
03 22.07 штиль 0 10 км дым 10/0 2000 м
[As trans]
+14.0 +8.0 67 +14 +18 1007.9 1002.1
06 22.07 СВ 2 10 км дым 10/0 2000 м
[As trans]
+16.2 +10.1 67 +16 +21 1006.7 1000.9
09 22.07 штиль 0 10 км дым 10/10 600 м
[Sc]
+19.6 +11.7 60 +21 +21 комфорт 1006.1 1000.4
12 22.07 штиль 0 10 км дым 10/10 600 м
[Sc]
+19.6 +13.7 69 +21 +21 комфорт 1005.8 1000.1 +19.6
15 22.07 штиль 0 10 км дым 10/10 600 м
[Sc]
+16.8 +12.7 77 +17 +17 1005.4 999.7
18 22.07 штиль 0 н/о дым 10/10 600 м
[Sc]
+15.6 +13.5 87 +15 +15 1004.6 998.8
21 22.07 штиль 0 10 км дым 10/10 600 м
[Sc]
+15.2 +12.3 83 +15 +15 1004.3 998.5
00 23.07 С 2 10 км дым {гроза, ливн. осадки} 10/10 600 м
[Cb cap]
+14.2 +12.9 92 +14 +14 1003.1 997.3 +14.2 4
03 23.07 штиль 0 10 км дым 10/0
[As trans]
+15.6 +13.8 89 +15 +20 1002.8 997.0
06 23.07 штиль 0 10 км дым 10/0
[As trans]
+18.2 +14.8 81 +18 +25 1002.2 996.5
09 23.07 штиль 0 4000 м дым 10/0 2000 м
[As trans]
+19.5 +13.4 68 +21 +25 комфорт 1003.0 997.3
12 23.07 штиль 0 4000 м дым 10/0 2000 м
[As trans]
+19.4 +13.1 67 +21 +22 комфорт 1003.2 997.5 +19.5

 

Местоположение метеостанции Бахта (Красноярский край, Россия): широта 62.47 долгота 89.00 высота над уровнем моря 57 м.

В архиве по умолчанию представлена погода в Бахте за последнюю неделю. Архивные данные за месяц целиком и за предыдущие месяцы, начиная с января 2011 года, Вы можете получить, выбрав интересующий диапазон дат из раскрывающегося списка и нажав кнопку "Ввод!".


*Определитесь, кто Вы:
робот инопланетянин человек

Внимание! Время в таблицах - всемирное. Для получения местного времени необходимо прибавить поправку, которая равна 7 ч.

Смотрите также архив погоды в соседних городах и на ближайших метеорологических станциях:

Погода в Верхнеимбатске (Красноярский край, Россия) (93 км)
Погода в Бору (Красноярский край, Россия) (110 км)
Погода в Келлоге (Красноярский край, Россия) (140 км)
Погода в Кузьмовке (Эвенкия, Россия) (162 км)
Погода в Ворогово (Красноярский край, Россия) (164 км)
Погода в Верещагино (Красноярский край, Россия) (210 км)
Погода в Сыме (Красноярский край, Россия) (238 км)
Погода в Ярцево (Красноярский край, Россия) (252 км)
Погода в Вельмо (Красноярский край, Россия) (283 км)
Погода в Тутончанах (Эвенкия, Россия) (306 км)

Пояснения к столбцам:

Ветер - указаны скорость ветра в м/с - средняя за 10 мин, порывы в срок и между сроками (в фигурных скобках) и направление, откуда дует ветер: С - северный, СВ - северо-восточный, В - восточный, ЮВ - юго-восточный, Ю - южный, ЮЗ - юго-западный, З - западный, СЗ - северо-западный.
Видимость - горизонтальная дальность видимости в метрах или километрах. При видимости от 1 до 10 км при отсутствии осадков обычно наблюдается дымка, при ухудшении видимости до 1 км и менее - туман. В сухую погоду видимость может ухудшаться дымом, пылью или мглою.
Явления - указаны атмосферные явления, наблюдавшиеся в срок или в последний час перед сроком; фигурными скобками обозначены явления, наблюдавшиеся между сроками (за 1-3 часа до срока); квадратными скобками обозначены град или гололедные отложения с указанием их диаметра в мм.
Облачность - указаны через наклонную черту общая и нижняя облачность в баллах и высота нижней границы облаков в метрах; квадратными скобками обозначены формы облаков: Ci - перистые, Cs - перисто-слоистые, Cc - перисто-кучевые, Ac - высококучевые, As - высокослоистые, Sc - слоисто-кучевые, Ns - слоисто-дождевые, Cu - кучевые, Cb - кучево-дождевые. Подробнее классификацию облаков см. в Атласе облаков (PDF).
T - Температура воздуха - температура, измеренная на высоте 2 м над землей.
Td - Температура точки росы - температура, при понижении до которой содержащийся в воздухе водяной пар достигнет насыщения.
f - Относительная влажность воздуха - влажноcть воздуха, измеренная на высоте 2 м над землей.
Te - Эффективная температура - температура, которую ощущает одетый по сезону человек в тени. Характеристика душности погоды. При расчете учитывается влияние влажности воздуха и скорости ветра на теплоощущения человека.
Tes - Эффективная температура на солнце - температура, которую ощущает человек, с поправкой на солнечный нагрев. Характеристика знойности погоды. Зависит от высоты солнца над горизонтом, облачности и скорости ветра. Ночью, в пасмурную погоду, а также при ветре 12 м/с и более поправка равна нулю.
P - Атмосферное давление - приведенное к уровню моря атмосферное давление.
Po - Атмосферное давление - измеренное на уровне метеостанции атмосферное давление.
Tmin - Минимальная температура - минимум температуры воздуха на высоте 2 м над землей.
Tmax - Максимальная температура - максимум температуры воздуха на высоте 2 м над землей.
R - Количество осадков - Количество выпавших осадков за период времени, мм. При наведении курсора мыши на число - период времени, за который выпало указанное количество осадков.
R24 - Количество осадков - Количество выпавших осадков за 24 часа, мм.
S - Снежный покров - Высота снежного покрова, см. При наведении курсора мыши на число - состояние снежного покрова и степень покрытия местности в баллах.